Harrison, AR

9:01 PM CDT on March 24, 2017 (GMT -0500)
Boone County

Weather History for KHRO - March, 2013

Change the Weather History Date:

Monday, March 25, 2013

  Actual Average Record
Temperature  
Mean Temperature 29 °F 52 °F  
Max Temperature 35 °F 63 °F 85 °F (1928)
Min Temperature 23 °F 40 °F 17 °F (1940)
Degree Days  
Heating Degree Days 36 14  
Month to date heating degree days 572 432  
Since 1 July heating degree days 3476 3604  
Cooling Degree Days 0 0  
Month to date cooling degree days 6 0  
Year to date cooling degree days 7 0  
Moisture  
Dew Point 19 °F    
Average Humidity 69    
Maximum Humidity 81    
Minimum Humidity 56    
Precipitation  
Precipitation T in 0.12 in 3.78 in (1920)
Month to date precipitation 2.39 2.97  
Year to date precipitation 9.01 8.17  
Snow  
Snow T in 0.00 in 1.00 in (1965)
Month to date snowfall 1.8 2.0  
Since 1 July snowfall 4.6 11.2  
Snow Depth 0.00 in    
Sea Level Pressure  
Sea Level Pressure 30.17 in    
Wind  
Wind Speed 13 mph (WNW)    
Max Wind Speed 21 mph    
Max Gust Speed 30 mph    
Visibility 10 miles    
Events Snow    
T = Trace of Precipitation, MM = Missing Value Source: NWS Daily Summary

Daily Weather History Graph

Daily Weather History Graph

Search for Another Location

Airport or City:

Trip Planner

Search our weather history database for the weather conditions in past years. The results will help you decide how hot, cold, wet, or windy it might be!

Date:

Astronomy

Mar. 25, 2013 Rise Set
Actual Time 7:08 AM CDT 7:28 PM CDT
Civil Twilight 6:42 AM CDT 7:54 PM CDT
Nautical Twilight 6:12 AM CDT 8:24 PM CDT
Astronomical Twilight 5:42 AM CDT 8:55 PM CDT
Moon 6:02 PM CDT 5:49 AM CDT
Length of Visible Light 13h 11m
Length of Day
12h 20m
Waxing Gibbous, 96% of the Moon is Illuminated
Mar 25
Waxing Gibbous
Mar 27
Full
Apr 2
Last Quarter
Apr 10
New
Apr 18
First Quarter

Hourly Weather History & Observations

Time (CDT) Temp. Windchill Dew Point Humidity Pressure Visibility Wind Dir Wind Speed Gust Speed Precip Events Conditions
12:04 AM 28.4 °F 17.5 °F 17.6 °F 64% 30.04 in 10.0 mi NW 13.8 mph 23.0 mph N/A   Overcast
12:53 AM 27.0 °F 16.7 °F 18.0 °F 69% 30.07 in 10.0 mi NW 11.5 mph - N/A   Clear
1:53 AM 26.1 °F 15.6 °F 17.1 °F 69% 30.06 in 10.0 mi WNW 11.5 mph 23.0 mph N/A   Clear
2:53 AM 25.0 °F 15.5 °F 17.1 °F 72% 30.07 in 10.0 mi WNW 9.2 mph 19.6 mph N/A   Clear
3:53 AM 25.0 °F 14.2 °F 17.1 °F 72% 30.07 in 10.0 mi WNW 11.5 mph 17.3 mph N/A   Clear
4:53 AM 25.0 °F 13.6 °F 16.0 °F 69% 30.07 in 10.0 mi WNW 12.7 mph 21.9 mph N/A   Clear
5:53 AM 24.1 °F 12.5 °F 16.0 °F 71% 30.08 in 10.0 mi WNW 12.7 mph 25.3 mph N/A   Clear
6:53 AM 24.1 °F 12.5 °F 16.0 °F 71% 30.09 in 10.0 mi NW 12.7 mph 24.2 mph N/A   Scattered Clouds
7:53 AM 24.1 °F 11.5 °F 16.0 °F 71% 30.11 in 10.0 mi WNW 15.0 mph 21.9 mph N/A   Clear
8:53 AM 26.1 °F 14.0 °F 17.1 °F 69% 30.14 in 10.0 mi WNW 15.0 mph 26.5 mph N/A   Partly Cloudy
9:35 AM 26.6 °F 15.7 °F 17.6 °F 69% 30.12 in 10.0 mi West 12.7 mph 23.0 mph N/A   Mostly Cloudy
9:53 AM 26.1 °F 13.6 °F 18.0 °F 71% 30.16 in 10.0 mi WNW 16.1 mph 26.5 mph N/A   Overcast
10:53 AM 28.0 °F 17.0 °F 19.0 °F 69% 30.18 in 10.0 mi WNW 13.8 mph 20.7 mph N/A   Overcast
11:53 AM 28.0 °F 15.3 °F 19.9 °F 72% 30.21 in 10.0 mi NW 18.4 mph 26.5 mph N/A   Overcast
12:39 PM 30.2 °F 18.5 °F 21.2 °F 69% 30.17 in 10.0 mi WNW 17.3 mph 25.3 mph N/A   Overcast
12:53 PM 32.0 °F 21.2 °F 21.0 °F 64% 30.20 in 10.0 mi WNW 16.1 mph 26.5 mph N/A   Overcast
1:12 PM 30.2 °F 19.8 °F 19.4 °F 64% 30.17 in 10.0 mi West 13.8 mph 24.2 mph N/A   Overcast
1:53 PM 30.9 °F 20.2 °F 19.9 °F 64% 30.21 in 10.0 mi WNW 15.0 mph 25.3 mph N/A   Overcast
2:53 PM 33.1 °F 23.4 °F 21.0 °F 61% 30.22 in 10.0 mi NW 13.8 mph 20.7 mph N/A   Overcast
3:53 PM 33.1 °F 23.9 °F 21.0 °F 61% 30.22 in 10.0 mi WNW 12.7 mph 21.9 mph N/A   Overcast
4:03 PM 33.8 °F 25.8 °F 21.2 °F 60% 30.18 in 10.0 mi WNW 10.4 mph 18.4 mph N/A   Overcast
4:40 PM 33.8 °F 23.2 °F 19.4 °F 56% 30.18 in 10.0 mi WNW 17.3 mph 24.2 mph 0.00 in   Overcast
4:53 PM 33.1 °F 23.0 °F 19.9 °F 59% 30.22 in 10.0 mi WNW 15.0 mph 21.9 mph 0.00 in   Overcast
5:53 PM 33.1 °F 23.4 °F 21.9 °F 64% 30.23 in 9.0 mi WNW 13.8 mph 23.0 mph 0.00 in   Overcast
6:53 PM 32.0 °F 21.6 °F 21.9 °F 66% 30.25 in 9.0 mi NW 15.0 mph 23.0 mph 0.00 in Snow Light Snow
7:53 PM 30.9 °F 22.2 °F 18.0 °F 59% 30.27 in 10.0 mi NW 10.4 mph 21.9 mph N/A   Overcast
8:53 PM 30.0 °F 20.0 °F 18.0 °F 61% 30.28 in 10.0 mi NW 12.7 mph 19.6 mph N/A   Mostly Cloudy
9:53 PM 28.0 °F 18.1 °F 19.9 °F 72% 30.31 in 10.0 mi NW 11.5 mph 19.6 mph N/A   Scattered Clouds
10:53 PM 28.0 °F 17.5 °F 21.0 °F 75% 30.32 in 10.0 mi NW 12.7 mph 20.7 mph N/A   Overcast
11:53 PM 27.0 °F 18.0 °F 21.0 °F 78% 30.32 in 10.0 mi WNW 9.2 mph - N/A   Clear